This is the latest recevied weather packets stored in our database for station/object KC4GS-13. If no packets are shown the sender has not sent any weather packets the latest 10 day(s).
| Time | Temp. | Humidity | Pressure | Rain* | Wind** | Luminosity | Snow |
|---|---|---|---|---|---|---|---|
| 1778004573 | 28.33° C | 42% | 1017.6 hPa | 0 mm | - | 798 W/m² | - |
| 1778004269 | 28.33° C | 42% | 1017.2 hPa | 0 mm | - | 365 W/m² | - |
| 1778003966 | 28.89° C | 42% | 1017.2 hPa | 0 mm | - | 829 W/m² | - |
| 1778003662 | 28.89° C | 40% | 1017.4 hPa | 0 mm | - | 828 W/m² | - |
| 1778003359 | 28.33° C | 41% | 1017.3 hPa | 0 mm | - | 837 W/m² | - |
| 1778003057 | 28.33° C | 41% | 1017.3 hPa | 0 mm | - | 839 W/m² | - |
| 1778002752 | 28.33° C | 42% | 1017.2 hPa | 0 mm | - | 202 W/m² | - |
| 1778002449 | 27.78° C | 42% | 1017.6 hPa | 0 mm | - | 801 W/m² | - |
| 1778002146 | 28.33° C | 41% | 1017.6 hPa | 0 mm | - | 857 W/m² | - |
| 1778001844 | 27.78° C | 42% | 1017.5 hPa | 0 mm | - | 880 W/m² | - |
| 1778001543 | 27.78° C | 43% | 1017.4 hPa | 0 mm | - | 855 W/m² | - |
| 1778001240 | 27.78° C | 43% | 1017.7 hPa | 0 mm | - | 802 W/m² | - |
| 1778000937 | 27.78° C | 45% | 1017.7 hPa | 0 mm | - | 897 W/m² | - |
| 1778000634 | 26.67° C | 45% | 1017.6 hPa | 0 mm | - | 836 W/m² | - |
| 1778000329 | 26.67° C | 45% | 1017.8 hPa | 0 mm | - | 779 W/m² | - |
| 1778000025 | 26.67° C | 47% | 1017.6 hPa | 0 mm | - | 779 W/m² | - |
| 1777999721 | 26.67° C | 46% | 1017.7 hPa | 0 mm | - | 388 W/m² | - |
| 1777999417 | 26.67° C | 46% | 1017.8 hPa | 0 mm | - | 751 W/m² | - |
| 1777999116 | 26.67° C | 45% | 1017.9 hPa | 0 mm | - | 484 W/m² | - |
| 1777998814 | 26.67° C | 47% | 1017.9 hPa | 0 mm | - | 386 W/m² | - |
| 1777998513 | 26.67° C | 48% | 1017.9 hPa | 0 mm | - | 344 W/m² | - |
| 1777998208 | 26.11° C | 49% | 1018.1 hPa | 0 mm | - | 275 W/m² | - |
| 1777997905 | 26.67° C | 50% | 1018 hPa | 0 mm | - | 151 W/m² | - |
| 1777997603 | 26.11° C | 49% | 1017.9 hPa | 0 mm | - | 122 W/m² | - |
| 1777997300 | 26.11° C | 52% | 1017.9 hPa | 0 mm | - | 342 W/m² | - |
* Rain latest hour (hover to see other rain measurements)
** Current wind speed in m/s (hover to see current wind gust speed)